星链-35138 (STARLINK-35138)

导读 | 豆包AI

STARLINK-35138是美国SpaceX公司星链(Starlink)星座的一颗卫星,于2025年8月31日发射升空,属于星链星座扩容计划的一部分。星链项目旨在构建全球卫星互联网星座,为全球各地用户提供低延迟、高速率的宽带互联网服务,该卫星入轨后将进一步完善星链星座的全球覆盖能力与服务容量。

基本信息
目录编号:
65420
目录名称:
STARLINK-35138
国际标识:
2025-192S
轨道中心:
EARTH
卫星名称:
星链-35138
卫星全名:
星链-35138 (STARLINK-35138)
卫星状态:
在轨 (已飞行216 天)
发射日期:
2025-08-31 UTC
国别 :
美国 (US)
星等 :
--
轨道信息
数据来源 国际轨道数据 AOE轨道数据
星历时间 2026-04-03T16:43:57+0800
1天前
查看轨道信息
2026-03-30T08:00:00+0800
5天前
查看轨道信息
半长轴 6853.356km 6853.365km
偏心率 0.0000908 0.0001529
轨道倾角 53.157° 53.161°
近地点辐角 66.961° 100.266°
升交点赤经 117.627° 137.899°
平近点角 293.149° 327.290°
近地点 474.596km 474.18km
远地点 475.842km 476.276km
周期 94.105分钟 94.106分钟
每日圈数 15.301987 15.301957
详细信息
固有亮度:
5
最大亮度:
2.5
卫星平台:
Starlink V1.0
覆盖范围:
全球
运营商:
太空探索技术公司
运营商所在国:
美国
制造商(研发单位):
太空探索技术公司
制造商所在国:
美国
使用方式:
暂无
卫星简介
Starlink 计划是 SpaceX 推出的全球卫星互联网项目,通过发射低轨道卫星,为全球尤其是偏远地区提供高速、低延迟的互联网服务。自 2019 年起,Starlink 已部署数千颗卫星,旨在缩小全球数字鸿沟,推动互联网普及。该项目还为军事、航空等行业提供通信支持,带来广泛经济效益。
2D轨道图
3D轨道图
轨道高度分析图
轨道倾角分析图
轨道综合分析图
查看轨道综合分析图